Regional Weather Roundup
Issued by NWS

Home | Current Version | Previous Version | Text Only | Print | Product List | Glossary Off
Versions: 1 2 3 4 5 6 7 8 9 10 11 12 13 14 15 16 17 18 19 20 21 22 23 24 25 26 27 28 29 30 31 32 33 34 35 36 37 38 39 40 41 42 43 44 45 46 47 48 49 50

528
ASUS43 KBIS 250002
RWRND

NORTH DAKOTA REGIONAL WEATHER ROUNDUP
NATIONAL WEATHER SERVICE BISMARCK ND
700 PM CDT WED AUG 24 2016

NOTE: "FAIR" INDICATES FEW OR NO CLOUDS BELOW 12,000 FEET WITH NO
SIGNIFICANT WEATHER AND/OR OBSTRUCTIONS TO VISIBILITY.


NDZ001>003-009>011-017-250100-
NORTHWEST NORTH DAKOTA

CITY           SKY/WX    TMP DP  RH WIND       PRES   REMARKS
WILLISTON      CLOUDY    59  50  72 NW20G30   30.08R
6HR MIN TEMP:  57; 6HR MAX TEMP:  66; 6HR PCP: TRACE;

MINOT          CLOUDY    63  52  67 W20       29.96R
MINOT AFB      LGT RAIN  59  55  85 W12       29.94R
$$

NDZ018>021-031>035-040>046-250100-
SOUTHWEST NORTH DAKOTA

CITY           SKY/WX    TMP DP  RH WIND       PRES   REMARKS
BISMARCK       MOSUNNY   71  47  42 NW17G25   30.01S
6HR MIN TEMP:  68; 6HR MAX TEMP:  74;

DICKINSON      CLOUDY    62  43  49 NW25G32   30.08S
GARRISON         N/A     64  49  57 W18G26    30.01R
6HR MIN TEMP:  64; 6HR MAX TEMP:  70;

HETTINGER ARPT SUNNY     69  43  38 NW24G33   30.11R
$$

NDZ004>008-012>016-024-026-027-054-250100-
NORTHEAST NORTH DAKOTA

CITY           SKY/WX    TMP DP  RH WIND       PRES   REMARKS
GRAND FORKS    MOSUNNY   70  51  51 W14       29.88S
DEVILS LAKE    PTSUNNY   66  52  60 W22       29.92S
$$

NDZ022-023-025-028>030-036>039-047>053-250100-
SOUTHEAST NORTH DAKOTA

CITY           SKY/WX    TMP DP  RH WIND       PRES   REMARKS
FARGO          MOSUNNY   73  52  47 W17       29.94S
6HR MIN TEMP:  73; 6HR MAX TEMP:  78;

JAMESTOWN      MOSUNNY   69  49  48 W16       29.97S
$$





USA.gov is the U.S. government's official web portal to all federal, state and local government web resources and services.